Time,TemperatureF,DewpointF,PressureIn,WindDirection,WindDirectionDegrees,WindSpeedMPH,WindSpeedGustMPH,Humidity,HourlyPrecipIn,Conditions,Clouds,dailyrainin,SoftwareType,DateUTC
2013-04-10 00:03:00,70.0,38.8,29.17,SE,135,3.1,4.0,32,0.00,,,0.00,VWS V13.01,2013-04-10 05:03:00,
2013-04-10 00:08:00,70.2,39.0,29.17,SSE,158,4.9,4.9,32,0.00,,,0.00,VWS V13.01,2013-04-10 05:08:00,
2013-04-10 00:13:00,70.2,39.0,29.17,SE,135,4.5,4.9,32,0.00,,,0.00,VWS V13.01,2013-04-10 05:13:00,
2013-04-10 00:18:00,70.2,39.0,29.17,SE,135,2.2,2.2,32,0.00,,,0.00,VWS V13.01,2013-04-10 05:18:00,
2013-04-10 00:23:00,70.2,39.0,29.17,SE,135,0.0,0.0,32,0.00,,,0.00,VWS V13.01,2013-04-10 05:23:00,
2013-04-10 00:28:00,70.0,38.8,29.17,East,90,5.4,5.4,32,0.00,,,0.00,VWS V13.01,2013-04-10 05:28:00,
2013-04-10 00:33:00,70.0,38.8,29.17,SE,135,3.6,3.6,32,0.00,,,0.00,VWS V13.01,2013-04-10 05:33:00,
2013-04-10 00:38:00,70.0,38.8,29.17,SE,135,2.2,3.6,32,0.00,,,0.00,VWS V13.01,2013-04-10 05:38:00,
2013-04-10 00:44:00,70.2,39.0,29.17,SE,135,4.9,4.9,32,0.00,,,0.00,VWS V13.01,2013-04-10 05:44:00,
2013-04-10 00:49:00,70.3,39.1,29.17,SE,135,3.1,5.4,32,0.00,,,0.00,VWS V13.01,2013-04-10 05:49:00,
2013-04-10 00:54:00,70.5,39.3,29.17,SE,135,6.3,8.1,32,0.00,,,0.00,VWS V13.01,2013-04-10 05:54:00,
2013-04-10 00:59:00,70.5,39.3,29.17,SE,135,8.1,8.1,32,0.00,,,0.00,VWS V13.01,2013-04-10 05:59:00,
2013-04-10 01:04:00,70.7,39.4,29.17,SE,135,2.7,4.0,32,0.00,,,0.00,VWS V13.01,2013-04-10 06:04:00,
2013-04-10 01:09:00,70.7,39.4,29.17,SE,135,3.6,3.6,32,0.00,,,0.00,VWS V13.01,2013-04-10 06:09:00,
2013-04-10 01:14:00,70.7,39.4,29.17,ESE,112,3.6,4.9,32,0.00,,,0.00,VWS V13.01,2013-04-10 06:14:00,
2013-04-10 01:19:00,70.7,39.4,29.17,SE,135,0.0,0.0,32,0.00,,,0.00,VWS V13.01,2013-04-10 06:19:00,
2013-04-10 01:24:00,70.5,39.3,29.17,SE,135,0.0,3.6,32,0.00,,,0.00,VWS V13.01,2013-04-10 06:24:00,
2013-04-10 01:30:00,70.3,39.1,29.17,ESE,112,0.0,0.0,32,0.00,,,0.00,VWS V13.01,2013-04-10 06:30:00,
2013-04-10 01:35:00,70.2,39.7,29.17,ESE,112,0.0,4.9,33,0.00,,,0.00,VWS V13.01,2013-04-10 06:35:00,
2013-04-10 01:40:00,70.2,39.7,29.17,SE,135,0.0,4.0,33,0.00,,,0.00,VWS V13.01,2013-04-10 06:40:00,
2013-04-10 01:45:00,70.0,39.6,29.17,SE,135,0.0,0.0,33,0.00,,,0.00,VWS V13.01,2013-04-10 06:45:00,
2013-04-10 01:50:00,69.8,39.4,29.17,SE,135,3.1,5.8,33,0.00,,,0.00,VWS V13.01,2013-04-10 06:50:00,
2013-04-10 01:55:00,69.6,40.0,29.17,SE,135,0.0,0.0,34,0.00,,,0.00,VWS V13.01,2013-04-10 06:55:00,
2013-04-10 02:00:00,69.6,40.0,29.17,SE,135,3.1,7.6,34,0.00,,,0.00,VWS V13.01,2013-04-10 07:00:00,
2013-04-10 02:05:00,69.6,40.0,29.17,SE,135,0.0,2.2,34,0.00,,,0.00,VWS V13.01,2013-04-10 07:05:00,
2013-04-10 02:10:00,69.4,39.9,29.17,SSE,158,3.6,3.6,34,0.00,,,0.00,VWS V13.01,2013-04-10 07:10:00,
2013-04-10 02:15:00,69.4,39.9,29.17,SE,135,0.0,0.0,34,0.00,,,0.00,VWS V13.01,2013-04-10 07:15:00,
2013-04-10 02:20:00,69.3,39.7,29.17,SE,135,3.6,3.6,34,0.00,,,0.00,VWS V13.01,2013-04-10 07:20:00,
2013-04-10 02:25:00,69.3,40.5,29.17,East,90,0.0,0.0,35,0.00,,,0.00,VWS V13.01,2013-04-10 07:25:00,
2013-04-10 02:31:00,69.1,40.3,29.17,SE,135,0.0,5.4,35,0.00,,,0.00,VWS V13.01,2013-04-10 07:31:00,
2013-04-10 02:36:00,68.9,40.2,29.17,SE,135,0.0,3.6,35,0.00,,,0.00,VWS V13.01,2013-04-10 07:36:00,
2013-04-10 02:41:00,68.9,40.2,29.17,SE,135,0.0,0.0,35,0.00,,,0.00,VWS V13.01,2013-04-10 07:41:00,
2013-04-10 02:46:00,68.7,40.7,29.17,SE,135,0.0,4.9,36,0.00,,,0.00,VWS V13.01,2013-04-10 07:46:00,
2013-04-10 02:51:00,68.7,40.7,29.17,SE,135,0.0,3.6,36,0.00,,,0.00,VWS V13.01,2013-04-10 07:51:00,
2013-04-10 02:56:00,68.7,40.7,29.17,SE,135,0.0,4.0,36,0.00,,,0.00,VWS V13.01,2013-04-10 07:56:00,
2013-04-10 03:01:00,68.7,40.7,29.17,SE,135,3.1,3.1,36,0.00,,,0.00,VWS V13.01,2013-04-10 08:01:00,
2013-04-10 03:06:00,68.7,41.4,29.17,SE,135,4.0,5.8,37,0.00,,,0.00,VWS V13.01,2013-04-10 08:06:00,
2013-04-10 03:12:00,68.7,41.4,29.17,SE,135,8.1,8.1,37,0.00,,,0.00,VWS V13.01,2013-04-10 08:12:00,
2013-04-10 03:17:00,68.7,41.4,29.14,SE,135,5.4,5.4,37,0.00,,,0.00,VWS V13.01,2013-04-10 08:17:00,
2013-04-10 03:22:00,68.7,42.1,29.14,SE,135,3.1,6.3,38,0.00,,,0.00,VWS V13.01,2013-04-10 08:22:00,
2013-04-10 03:27:00,68.9,42.3,29.14,ESE,112,3.1,3.6,38,0.00,,,0.00,VWS V13.01,2013-04-10 08:27:00,
2013-04-10 03:32:00,68.9,43.0,29.14,East,90,0.0,3.1,39,0.00,,,0.00,VWS V13.01,2013-04-10 08:32:00,
2013-04-10 03:37:00,68.9,43.0,29.14,SE,135,3.1,6.7,39,0.00,,,0.00,VWS V13.01,2013-04-10 08:37:00,
2013-04-10 03:42:00,69.1,43.1,29.14,SE,135,4.0,5.8,39,0.00,,,0.00,VWS V13.01,2013-04-10 08:42:00,
2013-04-10 03:48:00,69.1,43.1,29.14,SE,135,3.6,5.8,39,0.00,,,0.00,VWS V13.01,2013-04-10 08:48:00,
2013-04-10 03:53:00,69.1,43.1,29.14,SE,135,0.0,3.6,39,0.00,,,0.00,VWS V13.01,2013-04-10 08:53:00,
2013-04-10 03:58:00,69.1,43.8,29.14,SE,135,0.0,0.0,40,0.00,,,0.00,VWS V13.01,2013-04-10 08:58:00,
2013-04-10 04:03:00,69.1,43.8,29.17,SE,135,5.4,7.6,40,0.00,,,0.00,VWS V13.01,2013-04-10 09:03:00,
2013-04-10 04:08:00,69.3,43.9,29.17,SSE,158,3.6,4.9,40,0.00,,,0.00,VWS V13.01,2013-04-10 09:08:00,
2013-04-10 04:13:00,69.3,44.6,29.17,SE,135,2.2,4.0,41,0.00,,,0.00,VWS V13.01,2013-04-10 09:13:00,
2013-04-10 04:18:00,69.3,44.6,29.14,SE,135,2.2,5.4,41,0.00,,,0.00,VWS V13.01,2013-04-10 09:18:00,
2013-04-10 04:23:00,69.3,44.6,29.14,SE,135,3.1,7.2,41,0.00,,,0.00,VWS V13.01,2013-04-10 09:23:00,
2013-04-10 04:28:00,69.3,44.6,29.14,SE,135,4.0,4.0,41,0.00,,,0.00,VWS V13.01,2013-04-10 09:28:00,
2013-04-10 04:34:00,69.1,45.0,29.14,SE,135,0.0,3.1,42,0.00,,,0.00,VWS V13.01,2013-04-10 09:34:00,
2013-04-10 04:39:00,69.1,45.0,29.14,SE,135,5.4,5.4,42,0.00,,,0.00,VWS V13.01,2013-04-10 09:39:00,
2013-04-10 04:44:00,69.1,45.7,29.14,SE,135,4.9,4.9,43,0.00,,,0.00,VWS V13.01,2013-04-10 09:44:00,
2013-04-10 04:49:00,69.1,45.7,29.14,SE,135,3.1,4.9,43,0.00,,,0.00,VWS V13.01,2013-04-10 09:49:00,
2013-04-10 04:54:00,68.9,46.1,29.14,South,180,3.6,7.2,44,0.00,,,0.00,VWS V13.01,2013-04-10 09:54:00,
2013-04-10 04:59:00,68.9,46.1,29.14,SE,135,4.0,6.3,44,0.00,,,0.00,VWS V13.01,2013-04-10 09:59:00,
2013-04-10 05:04:00,68.7,46.5,29.12,ESE,112,4.9,6.7,45,0.00,,,0.00,VWS V13.01,2013-04-10 10:04:00,
2013-04-10 05:09:00,68.7,47.1,29.12,SSE,158,3.1,5.8,46,0.00,,,0.00,VWS V13.01,2013-04-10 10:09:00,
2013-04-10 05:14:00,68.7,47.7,29.12,SE,135,5.8,5.8,47,0.00,,,0.00,VWS V13.01,2013-04-10 10:14:00,
2013-04-10 05:19:00,68.5,47.5,29.12,SE,135,7.6,7.6,47,0.00,,,0.00,VWS V13.01,2013-04-10 10:19:00,
2013-04-10 05:24:00,68.5,48.6,29.12,SE,135,5.8,5.8,49,0.00,,,0.00,VWS V13.01,2013-04-10 10:24:00,
2013-04-10 05:29:00,68.5,49.2,29.12,SE,135,4.0,6.3,50,0.00,,,0.00,VWS V13.01,2013-04-10 10:29:00,
2013-04-10 05:35:00,68.7,49.9,29.12,South,180,4.0,4.0,51,0.00,,,0.00,VWS V13.01,2013-04-10 10:35:00,
2013-04-10 05:40:00,68.5,49.7,29.12,SE,135,4.0,5.8,51,0.00,,,0.00,VWS V13.01,2013-04-10 10:40:00,
2013-04-10 05:45:00,68.5,50.2,29.12,SE,135,4.0,4.0,52,0.00,,,0.00,VWS V13.01,2013-04-10 10:45:00,
2013-04-10 05:50:00,68.5,51.2,29.12,SE,135,3.6,5.8,54,0.00,,,0.00,VWS V13.01,2013-04-10 10:50:00,
2013-04-10 05:55:00,68.5,51.8,29.12,SE,135,6.3,6.3,55,0.00,,,0.00,VWS V13.01,2013-04-10 10:55:00,
2013-04-10 06:00:00,68.5,52.2,29.12,SSE,158,3.6,6.3,56,0.00,,,0.00,VWS V13.01,2013-04-10 11:00:00,
2013-04-10 06:05:00,68.7,52.9,29.12,SE,135,5.4,8.1,57,0.00,,,0.00,VWS V13.01,2013-04-10 11:05:00,
2013-04-10 06:10:00,68.7,52.9,29.12,South,180,4.9,4.9,57,0.00,,,0.00,VWS V13.01,2013-04-10 11:10:00,
2013-04-10 06:15:00,68.7,53.4,29.12,SE,135,5.8,5.8,58,0.00,,,0.00,VWS V13.01,2013-04-10 11:15:00,
2013-04-10 06:20:00,68.7,53.8,29.12,SE,135,0.0,4.9,59,0.00,,,0.00,VWS V13.01,2013-04-10 11:20:00,
2013-04-10 06:26:00,68.9,54.0,29.12,SE,135,2.2,3.1,59,0.00,,,0.00,VWS V13.01,2013-04-10 11:26:00,
2013-04-10 06:31:00,68.9,54.5,29.17,West,270,12.8,12.8,60,0.00,,,0.00,VWS V13.01,2013-04-10 11:31:00,
2013-04-10 06:36:00,68.9,52.6,29.17,SW,225,8.3,13.6,56,0.00,,,0.00,VWS V13.01,2013-04-10 11:36:00,
2013-04-10 06:41:00,69.3,50.4,29.17,West,270,5.8,11.0,51,0.00,,,0.00,VWS V13.01,2013-04-10 11:41:00,
2013-04-10 06:46:00,69.1,49.1,29.17,WNW,292,6.3,8.1,49,0.00,,,0.00,VWS V13.01,2013-04-10 11:46:00,
2013-04-10 06:51:00,69.3,46.4,29.17,NW,315,6.3,6.3,44,0.00,,,0.00,VWS V13.01,2013-04-10 11:51:00,
2013-04-10 06:56:00,69.3,45.8,29.17,West,270,4.9,8.3,43,0.00,,,0.00,VWS V13.01,2013-04-10 11:56:00,
2013-04-10 07:01:00,69.1,45.7,29.17,West,270,3.6,7.6,43,0.00,,,0.00,VWS V13.01,2013-04-10 12:01:00,
2013-04-10 07:06:00,68.9,45.5,29.17,West,270,5.4,5.4,43,0.00,,,0.00,VWS V13.01,2013-04-10 12:06:00,
2013-04-10 07:11:00,68.4,46.2,29.17,West,270,7.2,7.2,45,0.00,,,0.00,VWS V13.01,2013-04-10 12:11:00,
2013-04-10 07:16:00,68.0,46.5,29.17,West,270,2.7,3.6,46,0.00,,,0.00,VWS V13.01,2013-04-10 12:16:00,
2013-04-10 07:21:00,67.8,47.4,29.17,West,270,0.0,0.0,48,0.00,,,0.00,VWS V13.01,2013-04-10 12:21:00,
2013-04-10 07:26:00,67.5,48.2,29.17,West,270,0.0,0.0,50,0.00,,,0.00,VWS V13.01,2013-04-10 12:26:00,
2013-04-10 07:32:00,66.9,50.2,29.20,West,270,0.0,0.0,55,0.00,,,0.00,VWS V13.01,2013-04-10 12:32:00,
2013-04-10 07:37:00,66.6,51.8,29.20,SW,225,0.0,2.2,59,0.00,,,0.00,VWS V13.01,2013-04-10 12:37:00,
2013-04-10 07:42:00,66.0,53.1,29.20,West,270,0.0,0.0,63,0.05,,,0.05,VWS V13.01,2013-04-10 12:42:00,
2013-04-10 07:47:00,65.7,55.6,29.20,WNW,292,0.0,0.0,70,0.05,,,0.05,VWS V13.01,2013-04-10 12:47:00,
2013-04-10 07:52:00,65.5,55.8,29.20,West,270,0.0,0.0,71,0.05,,,0.05,VWS V13.01,2013-04-10 12:52:00,
2013-04-10 07:57:00,65.3,56.4,29.20,West,270,0.0,0.0,73,0.05,,,0.05,VWS V13.01,2013-04-10 12:57:00,
2013-04-10 08:02:00,65.1,56.6,29.20,West,270,0.0,0.0,74,0.05,,,0.05,VWS V13.01,2013-04-10 13:02:00,
2013-04-10 08:07:00,64.9,56.8,29.20,West,270,0.0,0.0,75,0.05,,,0.05,VWS V13.01,2013-04-10 13:07:00,
2013-04-10 08:12:00,64.6,55.7,29.20,West,270,0.0,0.0,73,0.05,,,0.05,VWS V13.01,2013-04-10 13:12:00,
2013-04-10 08:18:00,64.2,54.6,29.17,West,270,0.0,0.0,71,0.05,,,0.05,VWS V13.01,2013-04-10 13:18:00,
2013-04-10 08:23:00,64.2,54.6,29.17,West,270,0.0,0.0,71,0.05,,,0.05,VWS V13.01,2013-04-10 13:23:00,
2013-04-10 08:29:00,64.2,55.4,29.17,West,270,0.0,0.0,73,0.05,,,0.05,VWS V13.01,2013-04-10 13:29:00,
2013-04-10 08:34:00,64.2,56.5,29.17,SW,225,0.0,0.0,76,0.05,,,0.05,VWS V13.01,2013-04-10 13:34:00,
2013-04-10 08:39:00,64.0,56.7,29.17,SW,225,4.0,4.0,77,0.05,,,0.05,VWS V13.01,2013-04-10 13:39:00,
2013-04-10 08:44:00,63.9,56.9,29.17,SW,225,2.2,2.2,78,0.00,,,0.05,VWS V13.01,2013-04-10 13:44:00,
2013-04-10 08:49:00,63.9,56.5,29.20,SW,225,0.0,0.0,77,0.00,,,0.05,VWS V13.01,2013-04-10 13:49:00,
2013-04-10 08:55:00,64.0,56.7,29.20,South,180,0.0,2.2,77,0.00,,,0.05,VWS V13.01,2013-04-10 13:55:00,
2013-04-10 09:00:00,64.2,56.9,29.20,West,270,0.0,0.0,77,0.00,,,0.05,VWS V13.01,2013-04-10 14:00:00,
2013-04-10 09:05:00,64.2,56.9,29.20,SW,225,0.0,0.0,77,0.00,,,0.05,VWS V13.01,2013-04-10 14:05:00,
2013-04-10 09:10:00,64.4,57.0,29.20,SW,225,0.0,0.0,77,0.00,,,0.05,VWS V13.01,2013-04-10 14:10:00,
2013-04-10 09:16:00,64.6,56.8,29.20,SW,225,0.0,0.0,76,0.00,,,0.05,VWS V13.01,2013-04-10 14:16:00,
2013-04-10 09:21:00,64.6,56.8,29.20,SW,225,0.0,0.0,76,0.00,,,0.05,VWS V13.01,2013-04-10 14:21:00,
2013-04-10 09:26:00,64.6,57.2,29.20,South,180,0.0,0.0,77,0.00,,,0.05,VWS V13.01,2013-04-10 14:26:00,
2013-04-10 09:31:00,64.6,57.6,29.20,South,180,0.0,0.0,78,0.00,,,0.05,VWS V13.01,2013-04-10 14:31:00,
2013-04-10 09:37:00,64.6,57.6,29.20,West,270,0.0,0.0,78,0.00,,,0.05,VWS V13.01,2013-04-10 14:37:00,
2013-04-10 09:42:00,64.2,57.6,29.20,West,270,6.3,6.3,79,0.00,,,0.05,VWS V13.01,2013-04-10 14:42:00,
2013-04-10 09:47:00,63.5,56.5,29.20,West,270,7.6,7.6,78,0.00,,,0.05,VWS V13.01,2013-04-10 14:47:00,
2013-04-10 09:52:00,63.0,55.7,29.20,West,270,5.8,8.3,77,0.00,,,0.05,VWS V13.01,2013-04-10 14:52:00,
2013-04-10 09:57:00,62.6,55.7,29.20,NW,315,0.0,2.7,78,0.00,,,0.05,VWS V13.01,2013-04-10 14:57:00,
2013-04-10 10:02:00,62.2,56.3,29.20,West,270,5.8,5.8,81,0.00,,,0.05,VWS V13.01,2013-04-10 15:02:00,
2013-04-10 10:08:00,61.9,56.3,29.20,North,0,2.2,6.3,82,0.00,,,0.05,VWS V13.01,2013-04-10 15:08:00,
2013-04-10 10:13:00,61.9,57.0,29.20,NW,315,4.0,5.8,84,0.00,,,0.05,VWS V13.01,2013-04-10 15:13:00,
2013-04-10 10:18:00,61.7,57.2,29.23,WNW,292,6.3,6.3,85,0.00,,,0.05,VWS V13.01,2013-04-10 15:18:00,
2013-04-10 10:23:00,61.9,58.0,29.23,NW,315,0.0,5.4,87,0.00,,,0.05,VWS V13.01,2013-04-10 15:23:00,
2013-04-10 10:28:00,61.9,58.3,29.23,West,270,2.2,5.8,88,0.00,,,0.05,VWS V13.01,2013-04-10 15:28:00,
2013-04-10 10:33:00,61.9,58.6,29.23,West,270,12.8,12.8,89,0.00,,,0.05,VWS V13.01,2013-04-10 15:33:00,
2013-04-10 10:38:00,61.3,58.1,29.23,NW,315,8.3,8.7,89,0.00,,,0.05,VWS V13.01,2013-04-10 15:38:00,
2013-04-10 10:43:00,61.2,58.2,29.23,West,270,5.8,8.1,90,0.00,,,0.05,VWS V13.01,2013-04-10 15:43:00,
2013-04-10 10:48:00,61.2,58.2,29.23,NW,315,8.7,8.7,90,0.00,,,0.05,VWS V13.01,2013-04-10 15:48:00,
2013-04-10 10:54:00,61.0,58.3,29.23,NW,315,7.6,10.5,91,0.00,,,0.05,VWS V13.01,2013-04-10 15:54:00,
2013-04-10 10:59:00,60.6,58.0,29.23,NW,315,9.6,9.6,91,0.00,,,0.05,VWS V13.01,2013-04-10 15:59:00,
2013-04-10 11:04:00,60.3,57.6,29.23,NW,315,6.3,6.3,91,0.00,,,0.05,VWS V13.01,2013-04-10 16:04:00,
2013-04-10 11:09:00,59.9,57.3,29.23,NW,315,12.3,12.3,91,0.00,,,0.05,VWS V13.01,2013-04-10 16:09:00,
2013-04-10 11:14:00,58.8,56.2,29.23,NW,315,10.5,10.5,91,0.00,,,0.05,VWS V13.01,2013-04-10 16:14:00,
2013-04-10 11:19:00,58.6,56.0,29.23,North,0,4.9,6.3,91,0.00,,,0.05,VWS V13.01,2013-04-10 16:19:00,
2013-04-10 11:24:00,58.6,56.0,29.23,NE,45,8.1,9.2,91,0.00,,,0.05,VWS V13.01,2013-04-10 16:24:00,
2013-04-10 11:29:00,58.5,55.8,29.23,NE,45,3.6,7.2,91,0.00,,,0.05,VWS V13.01,2013-04-10 16:29:00,
2013-04-10 11:34:00,59.0,56.4,29.23,NE,45,5.8,7.6,91,0.00,,,0.05,VWS V13.01,2013-04-10 16:34:00,
2013-04-10 11:39:00,59.7,57.1,29.23,NE,45,3.6,4.0,91,0.00,,,0.05,VWS V13.01,2013-04-10 16:39:00,
2013-04-10 11:44:00,60.1,57.1,29.23,NW,315,5.4,7.2,90,0.00,,,0.05,VWS V13.01,2013-04-10 16:44:00,
2013-04-10 11:49:00,60.4,56.9,29.23,North,0,4.9,5.4,88,0.00,,,0.05,VWS V13.01,2013-04-10 16:49:00,
2013-04-10 11:54:00,61.0,56.8,29.23,NE,45,7.6,7.6,86,0.00,,,0.05,VWS V13.01,2013-04-10 16:54:00,
2013-04-10 11:59:00,61.2,55.3,29.23,NE,45,4.9,4.9,81,0.00,,,0.05,VWS V13.01,2013-04-10 16:59:00,
2013-04-10 12:04:00,61.5,54.6,29.23,NE,45,5.4,7.6,78,0.00,,,0.05,VWS V13.01,2013-04-10 17:04:00,
2013-04-10 12:10:00,62.2,54.6,29.23,East,90,5.4,5.4,76,0.00,,,0.05,VWS V13.01,2013-04-10 17:10:00,
2013-04-10 12:15:00,62.2,51.2,29.23,East,90,4.0,8.3,67,0.00,,,0.05,VWS V13.01,2013-04-10 17:15:00,
2013-04-10 12:20:00,62.6,50.3,29.23,NE,45,5.8,6.7,64,0.00,,,0.05,VWS V13.01,2013-04-10 17:20:00,
2013-04-10 12:25:00,62.8,49.6,29.23,East,90,4.5,6.3,62,0.00,,,0.05,VWS V13.01,2013-04-10 17:25:00,
2013-04-10 12:30:00,63.3,49.2,29.23,NE,45,6.3,6.3,60,0.00,,,0.05,VWS V13.01,2013-04-10 17:30:00,
2013-04-10 12:35:00,63.3,48.8,29.23,East,90,5.8,6.3,59,0.00,,,0.05,VWS V13.01,2013-04-10 17:35:00,
2013-04-10 12:39:00,64.2,49.2,29.23,East,90,4.9,6.3,58,0.00,,,0.05,VWS V13.01,2013-04-10 17:39:00,
2013-04-10 12:40:00,64.2,49.2,29.23,East,90,4.9,6.3,58,0.00,,,0.05,VWS V13.01,2013-04-10 17:40:00,
2013-04-10 12:45:00,64.2,49.2,29.23,East,90,4.9,6.3,58,0.00,,,0.05,VWS V13.01,2013-04-10 17:45:00,
2013-04-10 15:54:00,65.3,61.0,29.09,WNW,292,9.6,9.6,86,0.04,,,0.09,VWS V13.01,2013-04-10 20:54:00,
2013-04-10 15:59:00,65.7,62.0,29.09,NNE,22,0.0,2.7,88,0.29,,,0.34,VWS V13.01,2013-04-10 20:59:00,
2013-04-10 16:04:00,65.8,62.8,29.06,West,270,0.0,8.3,90,0.33,,,0.38,VWS V13.01,2013-04-10 21:04:00,
2013-04-10 16:09:00,66.4,63.4,29.06,NW,315,7.2,8.1,90,0.37,,,0.42,VWS V13.01,2013-04-10 21:09:00,
2013-04-10 16:14:00,66.4,63.7,29.06,WNW,292,8.7,11.0,91,0.37,,,0.42,VWS V13.01,2013-04-10 21:14:00,
2013-04-10 16:19:00,66.9,64.2,29.06,West,270,5.8,8.3,91,0.37,,,0.42,VWS V13.01,2013-04-10 21:19:00,
2013-04-10 16:24:00,66.4,63.7,29.06,NW,315,6.7,12.8,91,0.37,,,0.42,VWS V13.01,2013-04-10 21:24:00,
2013-04-10 16:29:00,66.2,63.5,29.06,NW,315,0.0,0.0,91,0.37,,,0.42,VWS V13.01,2013-04-10 21:29:00,
2013-04-10 16:34:00,66.4,63.7,29.09,NE,45,0.0,0.0,91,0.37,,,0.42,VWS V13.01,2013-04-10 21:34:00,
2013-04-10 16:40:00,66.4,63.7,29.09,North,0,2.2,6.3,91,0.37,,,0.42,VWS V13.01,2013-04-10 21:40:00,
2013-04-10 16:45:00,66.2,63.8,29.09,NE,45,7.2,8.7,92,0.37,,,0.42,VWS V13.01,2013-04-10 21:45:00,
2013-04-10 16:50:00,66.4,64.0,29.06,NE,45,5.8,5.8,92,0.37,,,0.42,VWS V13.01,2013-04-10 21:50:00,
2013-04-10 16:55:00,66.7,64.3,29.06,NE,45,7.6,7.6,92,0.33,,,0.42,VWS V13.01,2013-04-10 21:55:00,
2013-04-10 17:00:00,65.7,63.0,29.06,NNE,22,4.0,4.0,91,0.08,,,0.42,VWS V13.01,2013-04-10 22:00:00,
2013-04-10 17:05:00,65.1,62.1,29.06,NE,45,5.8,7.2,90,0.04,,,0.42,VWS V13.01,2013-04-10 22:05:00,
2013-04-10 17:11:00,64.2,61.5,29.06,NE,45,6.7,10.5,91,0.00,,,0.42,VWS V13.01,2013-04-10 22:11:00,
2013-04-10 17:16:00,63.7,61.0,29.03,NE,45,7.2,10.5,91,0.00,,,0.42,VWS V13.01,2013-04-10 22:16:00,
2013-04-10 17:21:00,63.5,60.8,29.03,East,90,6.3,6.3,91,0.00,,,0.42,VWS V13.01,2013-04-10 22:21:00,
2013-04-10 17:26:00,63.7,61.3,29.03,East,90,5.8,8.1,92,0.00,,,0.42,VWS V13.01,2013-04-10 22:26:00,
2013-04-10 17:32:00,63.5,61.1,29.06,East,90,7.2,7.2,92,0.00,,,0.42,VWS V13.01,2013-04-10 22:32:00,
2013-04-10 17:37:00,63.9,61.5,29.06,NE,45,6.3,8.1,92,0.00,,,0.42,VWS V13.01,2013-04-10 22:37:00,
2013-04-10 17:42:00,63.9,61.8,29.06,East,90,7.6,7.6,93,0.00,,,0.42,VWS V13.01,2013-04-10 22:42:00,
2013-04-10 17:47:00,63.9,61.8,29.03,ENE,68,3.6,6.3,93,0.00,,,0.42,VWS V13.01,2013-04-10 22:47:00,
2013-04-10 17:52:00,64.0,62.0,29.03,East,90,5.4,5.4,93,0.00,,,0.42,VWS V13.01,2013-04-10 22:52:00,
2013-04-10 17:57:00,64.0,62.3,29.03,East,90,6.3,7.6,94,0.00,,,0.42,VWS V13.01,2013-04-10 22:57:00,
2013-04-10 18:02:00,64.2,62.5,29.03,East,90,4.9,5.8,94,0.00,,,0.42,VWS V13.01,2013-04-10 23:02:00,
2013-04-10 18:07:00,64.2,62.5,29.00,East,90,4.9,5.8,94,0.00,,,0.42,VWS V13.01,2013-04-10 23:07:00,
2013-04-10 18:13:00,64.4,62.6,29.00,East,90,3.6,4.0,94,0.00,,,0.42,VWS V13.01,2013-04-10 23:13:00,
2013-04-10 18:18:00,64.4,62.6,29.00,East,90,4.0,4.5,94,0.00,,,0.42,VWS V13.01,2013-04-10 23:18:00,
2013-04-10 18:23:00,64.8,63.3,29.00,NE,45,0.0,2.7,95,0.00,,,0.42,VWS V13.01,2013-04-10 23:23:00,
2013-04-10 18:28:00,64.8,63.3,29.00,East,90,0.0,3.1,95,0.00,,,0.42,VWS V13.01,2013-04-10 23:28:00,
2013-04-10 18:33:00,64.8,63.3,28.97,NE,45,0.0,0.0,95,0.00,,,0.42,VWS V13.01,2013-04-10 23:33:00,
2013-04-10 18:38:00,64.9,63.5,28.97,NE,45,0.0,3.1,95,0.00,,,0.42,VWS V13.01,2013-04-10 23:38:00,
2013-04-10 18:43:00,65.1,63.7,28.97,East,90,5.4,5.4,95,0.00,,,0.42,VWS V13.01,2013-04-10 23:43:00,
2013-04-10 18:48:00,65.3,63.8,28.97,East,90,5.8,5.8,95,0.00,,,0.42,VWS V13.01,2013-04-10 23:48:00,
2013-04-10 18:53:00,65.3,64.1,28.97,East,90,5.4,5.4,96,0.00,,,0.42,VWS V13.01,2013-04-10 23:53:00,
2013-04-10 18:58:00,65.5,64.3,28.97,East,90,4.0,4.0,96,0.00,,,0.42,VWS V13.01,2013-04-10 23:58:00,
2013-04-10 19:03:00,66.0,64.8,28.97,ESE,112,3.6,3.6,96,0.00,,,0.42,VWS V13.01,2013-04-11 00:03:00,
2013-04-10 19:08:00,67.1,66.2,28.97,East,90,4.9,4.9,97,0.00,,,0.42,VWS V13.01,2013-04-11 00:08:00,
2013-04-10 19:13:00,68.4,67.5,28.97,SE,135,0.0,3.1,97,0.00,,,0.42,VWS V13.01,2013-04-11 00:13:00,
2013-04-10 19:18:00,69.8,68.6,28.97,ESE,112,5.4,7.6,96,0.00,,,0.42,VWS V13.01,2013-04-11 00:18:00,
2013-04-10 19:23:00,70.9,68.1,28.97,South,180,5.8,10.1,91,0.00,,,0.42,VWS V13.01,2013-04-11 00:23:00,
2013-04-10 19:29:00,71.8,62.3,28.97,SE,135,7.6,7.6,72,0.00,,,0.42,VWS V13.01,2013-04-11 00:29:00,
2013-04-10 19:34:00,71.8,60.2,28.97,SW,225,0.0,4.9,67,0.00,,,0.42,VWS V13.01,2013-04-11 00:34:00,
2013-04-10 19:39:00,69.6,57.8,28.97,South,180,2.2,7.2,66,0.00,,,0.42,VWS V13.01,2013-04-11 00:39:00,
2013-04-10 19:44:00,69.3,60.2,28.97,SW,225,5.4,7.6,73,0.00,,,0.42,VWS V13.01,2013-04-11 00:44:00,
2013-04-10 19:49:00,69.1,60.8,29.00,SW,225,6.3,8.1,75,0.00,,,0.42,VWS V13.01,2013-04-11 00:49:00,
2013-04-10 19:54:00,69.1,60.8,29.00,SW,225,6.3,6.3,75,0.04,,,0.46,VWS V13.01,2013-04-11 00:54:00,
2013-04-10 20:00:00,69.1,60.8,29.00,SW,225,32.4,32.4,75,0.13,,,0.55,VWS V13.01,2013-04-11 01:00:00,
2013-04-10 20:05:00,69.1,60.8,29.09,West,270,15.0,28.9,75,0.17,,,0.59,VWS V13.01,2013-04-11 01:05:00,
2013-04-10 20:10:00,69.1,60.8,29.09,West,270,23.7,26.2,75,0.17,,,0.59,VWS V13.01,2013-04-11 01:10:00,
2013-04-10 20:16:00,69.1,60.8,29.09,West,270,17.5,19.7,75,0.17,,,0.59,VWS V13.01,2013-04-11 01:16:00,
2013-04-10 20:21:00,69.1,60.8,29.09,West,270,17.5,22.4,75,0.17,,,0.59,VWS V13.01,2013-04-11 01:21:00,
2013-04-10 20:26:00,69.1,60.8,29.09,West,270,19.7,19.7,75,0.17,,,0.59,VWS V13.01,2013-04-11 01:26:00,
2013-04-10 20:31:00,60.1,58.7,29.09,West,270,17.5,18.8,95,0.17,,,0.59,VWS V13.01,2013-04-11 01:31:00,
2013-04-10 20:36:00,59.7,58.6,29.12,SW,225,11.0,19.2,96,0.17,,,0.59,VWS V13.01,2013-04-11 01:36:00,
2013-04-10 20:41:00,59.4,58.2,29.12,West,270,13.2,13.2,96,0.17,,,0.59,VWS V13.01,2013-04-11 01:41:00,
2013-04-10 20:46:00,59.4,58.2,29.12,West,270,9.6,10.1,96,0.17,,,0.59,VWS V13.01,2013-04-11 01:46:00,
2013-04-10 20:51:00,59.4,58.2,29.12,West,270,8.1,11.9,96,0.25,,,0.67,VWS V13.01,2013-04-11 01:51:00,
2013-04-10 20:56:00,59.4,58.2,29.12,West,270,7.6,11.0,96,0.21,,,0.67,VWS V13.01,2013-04-11 01:56:00,
2013-04-10 21:01:00,59.5,58.4,29.12,South,180,4.9,5.8,96,0.12,,,0.67,VWS V13.01,2013-04-11 02:01:00,
2013-04-10 21:06:00,59.4,58.2,29.12,NW,315,0.0,0.0,96,0.12,,,0.71,VWS V13.01,2013-04-11 02:06:00,
2013-04-10 21:11:00,59.4,58.2,29.12,West,270,0.0,0.0,96,0.12,,,0.71,VWS V13.01,2013-04-11 02:11:00,
2013-04-10 21:16:00,59.4,58.2,29.09,SW,225,0.0,0.0,96,0.16,,,0.75,VWS V13.01,2013-04-11 02:16:00,
2013-04-10 21:22:00,59.4,58.5,29.09,West,270,0.0,0.0,97,0.16,,,0.75,VWS V13.01,2013-04-11 02:22:00,
2013-04-10 21:27:00,59.4,58.5,29.09,South,180,0.0,0.0,97,0.16,,,0.75,VWS V13.01,2013-04-11 02:27:00,
2013-04-10 21:32:00,59.7,58.9,29.14,SSE,158,0.0,0.0,97,0.21,,,0.80,VWS V13.01,2013-04-11 02:32:00,
2013-04-10 21:37:00,59.7,58.9,29.14,ESE,112,0.0,0.0,97,0.25,,,0.84,VWS V13.01,2013-04-11 02:37:00,
2013-04-10 21:42:00,59.9,59.0,29.14,East,90,3.1,4.0,97,0.25,,,0.84,VWS V13.01,2013-04-11 02:42:00,
2013-04-10 21:47:00,59.7,58.9,29.12,East,90,0.0,0.0,97,0.29,,,0.88,VWS V13.01,2013-04-11 02:47:00,
2013-04-10 21:52:00,59.9,59.0,29.12,East,90,0.0,0.0,97,0.21,,,0.88,VWS V13.01,2013-04-11 02:52:00,
2013-04-10 21:58:00,60.3,59.4,29.12,East,90,5.4,5.4,97,0.25,,,0.92,VWS V13.01,2013-04-11 02:58:00,
2013-04-10 22:03:00,60.3,59.4,29.12,East,90,0.0,0.0,97,0.25,,,0.92,VWS V13.01,2013-04-11 03:03:00,
2013-04-10 22:08:00,60.3,59.4,29.12,East,90,0.0,0.0,97,0.21,,,0.92,VWS V13.01,2013-04-11 03:08:00,
2013-04-10 22:13:00,60.3,59.4,29.12,East,90,4.5,6.3,97,0.21,,,0.92,VWS V13.01,2013-04-11 03:13:00,
2013-04-10 22:18:00,60.3,59.4,29.12,East,90,0.0,4.9,97,0.17,,,0.92,VWS V13.01,2013-04-11 03:18:00,
2013-04-10 22:23:00,60.3,59.4,29.12,East,90,0.0,0.0,97,0.21,,,0.96,VWS V13.01,2013-04-11 03:23:00,
2013-04-10 22:28:00,60.1,59.5,29.12,East,90,4.0,4.5,98,0.21,,,0.96,VWS V13.01,2013-04-11 03:28:00,
2013-04-10 22:34:00,60.3,59.7,29.09,NE,45,0.0,4.9,98,0.16,,,1.00,VWS V13.01,2013-04-11 03:34:00,
2013-04-10 22:39:00,60.3,59.7,29.09,East,90,5.8,7.2,98,0.16,,,1.00,VWS V13.01,2013-04-11 03:39:00,
2013-04-10 22:44:00,60.1,59.5,29.09,East,90,7.6,8.3,98,0.16,,,1.00,VWS V13.01,2013-04-11 03:44:00,
2013-04-10 22:49:00,60.1,59.5,29.06,East,90,4.0,5.4,98,0.12,,,1.00,VWS V13.01,2013-04-11 03:49:00,
2013-04-10 22:54:00,60.3,59.7,29.06,ESE,112,8.1,8.1,98,0.12,,,1.00,VWS V13.01,2013-04-11 03:54:00,
2013-04-10 22:59:00,60.3,59.7,29.06,East,90,5.8,5.8,98,0.08,,,1.00,VWS V13.01,2013-04-11 03:59:00,
2013-04-10 23:00:00,60.3,59.7,29.06,East,90,6.3,6.3,98,0.08,,,1.00,VWS V13.01,2013-04-11 04:00:00,
2013-04-10 23:04:00,60.4,59.9,29.06,East,90,7.6,8.1,98,0.08,,,1.00,VWS V13.01,2013-04-11 04:04:00,
2013-04-10 23:09:00,60.4,59.9,29.06,East,90,5.4,10.5,98,0.08,,,1.00,VWS V13.01,2013-04-11 04:09:00,
2013-04-10 23:14:00,60.6,60.1,29.06,ESE,112,4.9,5.4,98,0.08,,,1.00,VWS V13.01,2013-04-11 04:14:00,
2013-04-10 23:19:00,60.8,60.2,29.09,ESE,112,0.0,5.4,98,0.08,,,1.00,VWS V13.01,2013-04-11 04:19:00,
2013-04-10 23:24:00,60.8,60.2,29.09,East,90,7.6,7.6,98,0.04,,,1.00,VWS V13.01,2013-04-11 04:24:00,
2013-04-10 23:29:00,60.8,60.2,29.09,East,90,6.3,10.5,98,0.04,,,1.00,VWS V13.01,2013-04-11 04:29:00,
2013-04-10 23:35:00,61.0,60.4,29.06,SE,135,5.8,8.3,98,0.04,,,1.00,VWS V13.01,2013-04-11 04:35:00,
2013-04-10 23:40:00,61.0,60.4,29.06,SE,135,3.1,5.4,98,0.00,,,1.00,VWS V13.01,2013-04-11 04:40:00,
2013-04-10 23:45:00,61.0,60.4,29.06,SE,135,5.4,11.0,98,0.04,,,1.04,VWS V13.01,2013-04-11 04:45:00,
2013-04-10 23:50:00,60.8,60.2,29.06,East,90,6.3,6.3,98,0.04,,,1.04,VWS V13.01,2013-04-11 04:50:00,
2013-04-10 23:55:00,60.8,60.2,29.06,East,90,2.7,6.3,98,0.04,,,1.04,VWS V13.01,2013-04-11 04:55:00,